This demonstration page uses our WeatherBlox Daily Observations layout. Learn more.

Left ArrowRight Arrow

Hourly Observations for May 9, 2017

Temp ( °F °C ) Dew Point ( °F °C ) Humidity (%) Winds ( mph kmh ) Pressure ( in mb ) Visibility ( mi km ) Precip ( " mm )
12:15 am 00:15 Clear 63 17.2 54 12 72 72 NE 15 24 29.94 1014 10 16 N/A
12:35 am 00:35 Partly Cloudy 63 17 53 11.9 72 72 NE 10 17 29.94 1014 10 16 N/A
12:55 am 00:55 Partly Cloudy 61 16.3 54 12 76 76 NE 10 17 29.94 1014 10 16 N/A
1:15 am 01:15 Clear 61 16.2 53 11.7 75 75 NE 9 15 29.94 1014 10 16 N/A
1:35 am 01:35 Clear 60 15.8 53 11.6 76 76 ENE 8 13 29.97 1015 10 16 N/A
1:55 am 01:55 Clear 60 15.5 53 11.7 78 78 NE 6 9 29.97 1015 10 16 N/A
2:15 am 02:15 Clear 60 15.8 52 11.3 75 75 N N/A 29.97 1015 10 16 N/A
2:35 am 02:35 Mostly Cloudy 59 15.1 52 11.3 78 78 NE 5 7 29.97 1015 10 16 N/A
2:55 am 02:55 Cloudy 59 15 53 11.6 80 80 NE 7 11 29.97 1015 10 16 N/A
3:15 am 03:15 Mostly Cloudy 58 14.6 53 11.6 82 82 NNE 6 9 29.97 1015 10 16 N/A
3:35 am 03:35 Partly Cloudy 58 14.3 53 11.9 86 86 NNE 5 7 29.94 1014 10 16 N/A
3:55 am 03:55 Clear 58 14.5 53 11.5 82 82 NNE 9 15 29.94 1014 10 16 N/A
4:15 am 04:15 Clear 57 14.1 52 11.3 83 83 NNE 8 13 29.97 1015 10 16 N/A
4:35 am 04:35 Partly Cloudy 57 13.7 53 11.5 87 87 N 8 13 29.97 1015 10 16 N/A
4:55 am 04:55 Partly Cloudy 57 14 53 11.5 85 85 N 8 13 29.97 1015 10 16 N/A
5:15 am 05:15 Clear 57 13.7 52 11.3 86 86 N 9 15 29.97 1015 10 16 N/A
5:35 am 05:35 Clear 56 13.3 52 11.1 87 87 NNW 10 17 29.97 1015 10 16 N/A
5:55 am 05:55 Clear 56 13.1 51 10.8 86 86 N 13 20 29.97 1015 10 16 N/A
6:15 am 06:15 Clear 55 13 51 10.6 85 85 NNE 14 22 29.97 1015 10 16 N/A
6:35 am 06:35 Sunny 55 13 51 10.3 84 84 NNE 13 20 29.97 1015 10 16 N/A
6:55 am 06:55 Sunny 55 13 50 10.1 83 83 NNE 12 19 29.97 1015 10 16 N/A
7:15 am 07:15 Sunny 56 13.2 50 10.1 82 82 NNE 13 20 29.97 1015 10 16 N/A
7:35 am 07:35 Sunny 57 13.8 50 10 78 78 NE 16 26 29.97 1015 10 16 N/A
7:55 am 07:55 Sunny 58 14.6 48 9.1 70 70 NE 18 30 29.97 1015 10 16 N/A
8:15 am 08:15 Sunny 58 14.5 48 8.9 69 69 NE 18 30 29.97 1015 10 16 N/A
8:35 am 08:35 Sunny 58 14.5 48 8.9 69 69 NE 16 26 29.97 1015 10 16 N/A
8:55 am 08:55 Sunny 59 14.8 49 9.2 69 69 ENE 21 33 29.97 1015 10 16 N/A
9:15 am 09:15 Sunny 59 15.1 49 9.3 69 69 ENE 20 31 29.97 1015 10 16 N/A
9:35 am 09:35 Sunny 60 15.7 49 9.7 68 68 ENE 21 33 29.97 1015 10 16 N/A
9:55 am 09:55 Sunny 61 16.3 49 9.5 64 64 ENE 18 30 29.94 1014 10 16 N/A
10:15 am 10:15 Sunny 63 17.2 49 9.7 62 62 E 15 24 29.97 1015 10 16 N/A
10:35 am 10:35 Sunny 64 17.6 50 9.9 61 61 ENE 15 24 29.97 1015 10 16 N/A
10:55 am 10:55 Sunny 64 17.5 49 9.7 60 60 ENE 14 22 29.97 1015 10 16 N/A
11:15 am 11:15 Sunny 65 18.5 50 9.8 57 57 E 13 20 29.94 1014 10 16 N/A
11:35 am 11:35 Sunny 67 19.6 50 10.2 55 55 E 13 20 29.91 1013 10 16 N/A
11:55 am 11:55 Sunny 68 19.9 50 10.1 53 53 E 13 20 29.91 1013 10 16 N/A
12:15 pm 12:15 Sunny 69 20.4 50 10.2 52 52 ENE 16 26 29.91 1013 10 16 N/A
12:35 pm 12:35 Sunny 70 20.9 51 10.5 52 52 E 9 15 29.91 1013 10 16 N/A
12:55 pm 12:55 Sunny 70 21.2 51 10.4 50 50 E 14 22 29.91 1013 10 16 N/A
1:15 pm 13:15 Sunny 71 21.5 51 10.5 50 50 NE 9 15 29.88 1012 10 16 N/A
1:35 pm 13:35 Partly Cloudy 72 22.1 51 10.8 49 49 NNE 9 15 29.88 1012 10 16 N/A
1:55 pm 13:55 Partly Cloudy 73 22.8 52 11.1 48 48 ENE 10 17 29.85 1011 10 16 N/A
2:15 pm 14:15 Partly Cloudy 73 22.8 51 10.7 46 46 NE 7 11 29.85 1011 10 16 N/A
2:35 pm 14:35 Partly Cloudy 73 23 52 10.9 47 47 NE 7 11 29.83 1010 10 16 N/A
2:55 pm 14:55 Partly Cloudy 74 23.5 52 10.9 45 45 E 10 17 29.83 1010 10 16 N/A
3:15 pm 15:15 Partly Cloudy 74 23.6 52 11.1 45 45 ESE 7 11 29.83 1010 10 16 N/A
3:35 pm 15:35 Sunny 74 23.6 52 10.9 45 45 SE 5 7 29.83 1010 10 16 N/A
3:55 pm 15:55 Mostly Cloudy 76 24.3 52 11.1 44 44 E 7 11 29.83 1010 10 16 N/A
4:15 pm 16:15 Cloudy 76 24.2 52 11.2 44 44 ESE 6 9 29.80 1009 10 16 N/A
4:35 pm 16:35 Cloudy 76 24.5 52 10.9 42 42 E 10 17 29.80 1009 10 16 N/A
4:55 pm 16:55 Cloudy 75 23.8 52 11.2 45 45 ESE 9 15 29.80 1009 10 16 N/A
5:15 pm 17:15 Cloudy 75 23.8 52 11.1 45 45 E 6 9 29.77 1008 10 16 N/A
5:35 pm 17:35 Cloudy 75 23.7 53 11.9 48 48 E 7 11 29.77 1008 10 16 N/A
5:55 pm 17:55 Cloudy 75 23.7 53 11.5 46 46 ENE 7 11 29.77 1008 10 16 N/A
6:15 pm 18:15 Mostly Cloudy 75 23.9 53 11.7 46 46 ESE 8 13 29.77 1008 10 16 N/A
6:35 pm 18:35 Partly Cloudy 76 24.7 54 12.2 46 46 NE 8 13 29.74 1007 10 16 N/A
6:55 pm 18:55 Partly Cloudy 76 24.5 54 12 46 46 E 6 9 29.74 1007 10 16 N/A
7:15 pm 19:15 Mostly Cloudy 75 24 53 11.7 46 46 E 6 9 29.74 1007 10 16 N/A
7:35 pm 19:35 Mostly Cloudy 75 23.8 53 11.8 47 47 E 8 13 29.74 1007 10 16 N/A
7:55 pm 19:55 Cloudy 73 23 52 11.1 47 47 NE 9 15 29.74 1007 10 16 N/A
8:15 pm 20:15 Mostly Cloudy 72 22.2 51 10.7 48 48 NE 10 17 29.74 1007 10 16 N/A
8:35 pm 20:35 Partly Cloudy 71 21.5 51 10.6 50 50 NE 14 22 29.77 1008 10 16 N/A
8:55 pm 20:55 Mostly Cloudy 70 21 50 9.9 49 49 NE 15 24 29.77 1008 10 16 N/A
9:15 pm 21:15 Mostly Cloudy 69 20.4 49 9.4 49 49 ENE 18 30 29.80 1009 10 16 N/A
9:35 pm 21:35 Mostly Cloudy 67 19.5 48 8.9 51 51 ENE 16 26 29.80 1009 10 16 N/A
9:55 pm 21:55 Mostly Cloudy with Nearby Thunderstorms 65 18.4 48 8.8 54 54 ENE 14 22 29.80 1009 10 16 N/A
10:15 pm 22:15 Partly Cloudy 64 17.8 47 8.4 54 54 ENE 14 22 29.83 1010 10 16 N/A
10:35 pm 22:35 Partly Cloudy 64 17.7 46 7.5 51 51 NE 16 26 29.83 1010 10 16 N/A
10:55 pm 22:55 Clear with Nearby Thunderstorms 63 17 45 7.1 52 52 NE 15 24 29.83 1010 10 16 N/A
11:15 pm 23:15 Mostly Cloudy 62 16.7 44 6.8 52 52 ENE 17 28 29.83 1010 10 16 N/A
11:35 pm 23:35 Cloudy with Nearby Thunderstorms 62 16.5 44 6.7 53 53 ENE 15 24 29.83 1010 10 16 N/A
11:55 pm 23:55 Mostly Cloudy with Thunderstorms 62 16.4 44 6.9 54 54 ENE 16 26 29.83 1010 10 16 N/A

Powered by AerisWeather